Regional Weather Roundup
Issued by NWS Cleveland, OH

Home | Current Version | Previous Version | Graphics & Text | Print | Product List | Glossary On
Versions: 1 2 3 4 5 6 7 8 9 10 11 12 13 14 15 16 17 18 19 20 21 22 23 24 25 26 27 28 29 30 31 32 33 34 35 36 37 38 39 40 41 42 43 44 45 46 47 48 49 50
123
ASUS41 KCLE 280110
RWRCLE
OHIO REGIONAL WEATHER ROUNDUP
NATIONAL WEATHER SERVICE WILMINGTON, OH
900 PM EDT TUE SEP 27 2016

NOTE: "FAIR" INDICATES FEW OR NO CLOUDS BELOW 12,000 FEET WITH NO
SIGNIFICANT WEATHER AND/OR OBSTRUCTIONS TO VISIBILITY.

OHZ001>008-015>018-024>027-034-035-043-044-280200-
   NORTHWEST OHIO

CITY           SKY/WX    TMP DP  RH WIND       PRES   REMARKS
DEFIANCE       FAIR      54  43  66 CALM      29.79R
FINDLAY        FAIR      54  39  57 S9        29.80R
TOLEDO EXPRESS FAIR      52  48  86 CALM      29.79R
TOLEDO EXEC    FAIR      59  42  53 CALM      29.80R
LIMA           FAIR      57  44  62 CALM      29.82R
$$

OHZ009>014-019>023-028>033-038-089-280200-
   NORTHEAST OHIO

CITY           SKY/WX    TMP DP  RH WIND       PRES   REMARKS
CLE-HOPKINS    FAIR      66  42  41 S8        29.84R
CLE-LAKEFRONT  FAIR      68  42  38 S12       29.81R
CUY CO. ARPT   MOCLDY    66  46  48 SW7       29.83R
LORAIN-ELYRIA  FAIR      56  38  50 S5        29.83R
ASHTABULA      CLOUDY    62  45  53 W6        29.85R
AKRON-CANTON   FAIR      63  40  42 S10       29.86R
WOOSTER        LGT RAIN  60  42  51 S8        29.86R
MANSFIELD      FAIR      60  45  57 S7        29.85R
YOUNGSTOWN     MOCLDY    60  42  51 S8        29.87R
$$

OHZ042-051>053-060>062-070>072-077>081-280200-
  SOUTHWEST OHIO

CITY           SKY/WX    TMP DP  RH WIND       PRES   REMARKS
CINC-COVINGTON FAIR      61  48  62 S6        29.87R
CINC-LUNKEN    FAIR      59  52  77 S3        29.87R
HAMILTON       FAIR      57  49  74 CALM      29.87R
DAYTON         FAIR      64  45  49 S9        29.86R
WRIGHT-PAT AFB FAIR      60  47  62 S6        29.85R
DAYTON GENERAL FAIR      63  45  51 S6        29.86R
WILMINGTON     FAIR      59  46  62 S6        29.88R
$$

OHZ036-037-039>041-045>050-054>059-063>069-073>076-082>088-280200-
  CENTRAL AND SOUTHEAST OHIO

CITY           SKY/WX    TMP DP  RH WIND       PRES   REMARKS
COLUMBUS       FAIR      64  45  49 S6        29.86R
OSU AIRPORT    FAIR      64  45  49 S9        29.86R
BOLTON FIELD   FAIR      59  46  63 S7        29.87R
RICKENBACK AFB FAIR      62  44  51 S7        29.86S
NEWARK         FAIR      61  43  51 S3        29.87R
MARION         FAIR      59  44  57 S8        29.84R
LANCASTER      FAIR      59  43  55 S5        29.88R
ZANESVILLE     FAIR      61  41  47 S3        29.89R
NEW PHILLY     FAIR      60  46  59 SE5       29.88R
$$




USA.gov is the U.S. government's official web portal to all federal, state and local government web resources and services.